This is the latest recevied weather packets stored in our database for station/object N0NPO. If no packets are shown the sender has not sent any weather packets the latest 10 day(s).
| Time | Temp. | Humidity | Pressure | Rain* | Wind** | Luminosity | Snow |
|---|---|---|---|---|---|---|---|
| 1778331109 | 8.89° C | 1% | 1014.9 hPa | 0 mm | - | 75 W/m² | - |
| 1778330806 | 8.89° C | 1% | 1014.6 hPa | 0 mm | - | 48 W/m² | - |
| 1778330503 | 8.89° C | 1% | 1014.4 hPa | 0 mm | - | 39 W/m² | - |
| 1778330201 | 8.89° C | 1% | 1014.4 hPa | 0 mm | - | 51 W/m² | - |
| 1778329898 | 8.33° C | 1% | 1014.1 hPa | 0 mm | - | 37 W/m² | - |
| 1778329593 | 8.33° C | 1% | 1014 hPa | 0 mm | - | 28 W/m² | - |
| 1778329290 | 8.33° C | 1% | 1013.8 hPa | 0 mm | - | 37 W/m² | - |
| 1778328987 | 8.33° C | 1% | 1013.6 hPa | 0 mm | - | 31 W/m² | - |
| 1778328685 | 8.33° C | 1% | 1013.6 hPa | 0 mm | - | 28 W/m² | - |
| 1778328382 | 8.33° C | 1% | 1013.5 hPa | 0 mm | - | 18 W/m² | - |
| 1778328081 | 8.33° C | 1% | 1013.3 hPa | 0 mm | - | 18 W/m² | - |
| 1778327778 | 8.33° C | 1% | 1013.5 hPa | 0 mm | - | 9 W/m² | - |
| 1778327475 | 8.89° C | 1% | 1013.1 hPa | 0 mm | - | 7 W/m² | - |
| 1778327173 | 8.89° C | 1% | 1012.7 hPa | 0 mm | - | 6 W/m² | - |
| 1778326872 | 8.89° C | 1% | 1012.4 hPa | 0 mm | - | 6 W/m² | - |
| 1778326569 | 8.89° C | 1% | 1012 hPa | 0 mm | - | 2 W/m² | - |
| 1778326267 | 8.89° C | 1% | 1012.5 hPa | 0 mm | - | 1 W/m² | - |
| 1778325963 | 8.89° C | 1% | 1012.4 hPa | 0 mm | - | 0 W/m² | - |
| 1778325660 | 8.89° C | 1% | 1012.6 hPa | 0 mm | - | 0 W/m² | - |
| 1778325358 | 8.89° C | 1% | 1012.5 hPa | 0 mm | - | 0 W/m² | - |
| 1778325054 | 8.89° C | 1% | 1012.9 hPa | 0 mm | - | 0 W/m² | - |
| 1778324751 | 8.89° C | 1% | 1013.2 hPa | 0 mm | - | 0 W/m² | - |
| 1778324448 | 8.89° C | 1% | 1012.7 hPa | 0 mm | - | 0 W/m² | - |
| 1778324147 | 8.89° C | 1% | 1012.9 hPa | 0 mm | - | 0 W/m² | - |
| 1778323844 | 8.89° C | 1% | 1012.9 hPa | 0 mm | - | 0 W/m² | - |
* Rain latest hour (hover to see other rain measurements)
** Current wind speed in m/s (hover to see current wind gust speed)